EHI
16 17 16 15 19 25 28 29 30 33 34 34 31 27 24 22 17 12 11 13 12 11 10 8 8 10 10 9 7 6 6 4 3 3 3 3 3 3 3 2 1 0 0
19 22 20 17 21 29 34 34 33 34 35 35 31 26 24 22 17 13 13 15 14 12 9 8 9 11 10 9 7 6 6 4 3 3 3 3 3 3 3 3 2 1 1
21 25 24 21 24 31 37 38 39 40 40 36 30 27 26 24 21 18 17 16 16 13 9 7 9 11 11 8 7 7 6 4 3 3 3 3 3 3 4 3 2 2 2
21 23 25 25 27 31 35 38 44 49 48 42 35 31 30 28 26 25 22 19 17 14 10 7 8 11 11 9 8 8 6 4 3 4 5 5 5 5 5 5 3 3 3
19 21 24 27 29 30 32 39 46 51 51 47 41 37 33 31 30 28 25 21 18 15 12 9 9 11 11 10 10 9 7 5 5 6 7 7 7 6 6 6 6 5 4
19 22 26 29 29 29 32 39 46 51 51 49 43 38 34 32 30 29 26 22 18 16 13 11 11 12 12 11 11 10 8 7 7 8 8 7 7 6 6 6 6 6 5
23 27 30 32 33 32 34 40 47 51 50 48 43 37 33 31 29 28 25 20 16 15 15 12 12 13 12 11 11 10 10 10 10 9 8 8 7 7 6 6 6 6 5
29 31 33 35 35 35 36 41 46 49 48 47 43 36 32 30 27 25 23 19 14 13 13 12 12 13 12 10 10 10 11 13 12 10 10 10 9 8 7 7 6 6 6
28 29 31 33 33 33 34 37 41 44 46 46 42 34 28 27 26 24 22 19 16 13 11 10 10 12 13 11 10 10 11 13 12 11 12 12 10 9 9 7 6 5 6
23 23 24 26 28 29 30 32 35 40 45 45 39 30 26 25 24 24 23 21 18 16 12 9 9 11 12 12 10 8 8 9 10 10 12 12 9 8 8 7 5 4 5
21 20 18 19 24 27 28 30 31 35 41 43 38 32 28 24 20 20 20 19 19 18 16 13 11 10 11 12 11 9 7 7 8 9 11 10 7 6 6 5 4 4 4
21 19 17 19 25 28 27 28 28 31 36 38 38 33 27 21 16 15 15 16 16 17 16 14 11 9 10 13 14 11 8 7 8 9 10 9 7 5 4 4 4 4 4
23 21 19 22 27 29 27 26 26 27 30 33 34 30 24 17 13 12 13 13 13 13 12 10 8 8 10 13 14 12 10 8 7 8 8 9 7 4 4 5 5 4 4
25 24 22 24 27 29 29 26 24 25 26 28 29 27 22 16 11 11 12 12 12 12 10 7 6 7 9 10 11 10 8 7 8 8 7 7 6 4 3 5 5 4 4
23 23 22 22 24 27 27 25 22 23 24 24 25 24 20 15 11 10 11 12 13 13 11 7 5 5 6 6 6 6 6 8 8 7 7 6 5 3 2 3 4 4 4
21 22 22 21 22 23 23 21 19 20 21 22 22 20 17 14 11 9 9 10 12 13 11 7 5 4 3 2 2 3 5 7 7 7 6 4 2 1 0 1 2 3 3
20 21 21 21 22 22 21 20 18 17 17 17 16 15 13 11 8 7 7 8 9 10 9 6 4 4 3 1 0 1 4 5 6 6 5 3 1 0 0 0 1 1 1
17 19 20 20 21 21 21 21 19 15 14 12 11 9 8 6 6 6 6 6 5 5 5 4 4 4 3 1 0 1 3 4 4 5 4 2 1 0 0 0 0 0 0
17 19 20 18 18 19 19 20 18 16 13 9 6 5 3 4 5 5 5 5 5 3 2 1 2 2 2 1 0 1 2 3 4 4 3 1 1 0 0 0 0 0 0
18 20 20 18 17 18 18 18 19 17 13 8 4 3 2 2 3 4 5 6 7 4 1 0 0 1 1 0 0 0 2 3 4 4 2 1 0 0 0 0 0 0 0
17 20 21 19 19 20 20 21 20 18 13 7 5 4 2 1 2 3 5 6 8 7 4 1 0 0 0 0 0 0 2 3 3 3 1 0 0 0 0 0 0 0 0
15 17 19 21 22 22 23 23 22 17 11 7 6 5 4 1 1 3 4 5 8 8 6 4 1 0 0 0 0 0 1 2 3 2 1 0 0 0 0 0 0 0 0
12 13 16 20 21 20 21 22 22 16 10 7 8 8 7 4 3 4 4 4 6 7 7 4 1 0 0 0 0 0 0 1 2 2 1 0 0 0 0 0 0 0 0
9 9 13 17 18 16 16 19 20 15 9 7 9 10 9 7 7 6 5 4 4 5 5 4 3 1 0 0 0 0 0 0 1 2 1 0 0 0 0 0 0 0 0
6 8 10 13 14 14 14 16 17 13 8 7 9 9 8 7 6 6 5 3 2 3 4 4 3 2 0 0 0 0 0 0 1 2 2 1 0 0 0 0 0 0 0
5 6 8 9 11 12 14 16 14 11 8 8 9 8 6 5 4 4 4 2 1 1 2 2 2 1 0 0 0 0 0 0 0 1 2 1 0 0 0 0 0 0 0
Wind_Speed
7 7 8 9 9 9 9 8 8 7 6 5 5 4 4 3 2 2 2 2 2 2 2 1 2 1 1 1 1 1 2 1 1 1 2 2 3 2 1 1 1 2 1
7 8 8 9 10 9 9 9 9 8 7 5 4 3 3 3 2 2 2 2 2 2 2 2 2 2 2 2 1 1 1 1 2 2 2 2 3 3 2 2 2 1 1
7 8 8 9 9 9 9 8 8 8 7 6 4 4 4 3 3 3 2 2 2 2 2 2 2 2 3 2 2 2 2 2 2 1 2 2 0 1 3 2 1 1 1
7 8 8 8 9 9 9 9 8 8 8 7 6 6 4 4 3 2 2 3 2 2 2 2 3 3 2 2 3 2 2 2 2 1 2 2 2 2 1 3 2 2 1
6 7 8 8 8 8 8 8 8 8 8 8 7 6 5 4 3 3 2 2 2 2 2 2 2 3 2 2 2 2 3 2 2 1 1 2 2 3 2 1 2 2 2
5 7 7 6 7 7 8 8 8 8 8 8 7 7 6 4 3 3 2 2 2 2 2 3 2 3 2 3 3 3 4 2 2 2 2 2 2 2 2 2 2 2 1
4 6 7 7 7 7 8 8 9 8 8 8 7 7 6 5 5 4 3 2 2 1 1 2 2 2 2 3 3 3 3 3 3 3 3 2 2 2 2 3 2 1 1
3 5 6 6 7 7 8 8 8 8 8 7 6 5 5 4 3 3 2 2 2 1 1 2 2 3 2 2 2 3 3 2 3 3 3 2 2 2 2 2 3 3 2
4 4 5 6 6 7 7 7 8 8 7 7 6 6 5 4 3 3 3 2 1 1 1 2 2 2 2 3 3 2 2 2 3 3 3 3 2 2 2 3 3 3 3
4 4 4 4 5 6 6 6 7 7 7 7 6 5 6 5 4 3 2 1 1 1 1 1 2 2 2 3 3 2 2 2 2 2 2 3 2 2 2 2 3 3 3
4 4 4 4 5 6 7 6 6 7 7 7 6 5 5 5 4 3 3 2 2 2 2 1 2 2 2 2 2 2 2 2 2 2 2 2 2 2 2 2 2 2 2
3 5 5 5 5 5 5 6 6 6 6 6 6 5 5 5 4 4 3 3 2 2 2 2 2 2 2 2 2 2 2 2 2 2 1 2 1 2 2 2 2 1 2
4 5 5 5 4 4 4 5 5 5 5 6 6 5 5 5 4 4 3 3 3 2 2 2 1 1 2 2 2 2 2 2 2 2 2 2 1 2 1 2 2 1 1
4 4 4 5 4 4 4 4 4 4 4 5 6 6 5 4 4 4 3 3 3 3 2 2 1 1 2 2 2 2 2 2 2 1 2 2 2 2 1 1 1 1 1
4 5 4 4 5 5 4 4 4 5 4 5 5 6 5 5 4 4 4 3 3 3 2 2 2 1 1 1 1 2 2 2 2 2 1 1 1 1 1 1 1 1 1
4 5 5 5 5 5 4 4 4 4 5 4 5 5 5 5 5 4 4 4 3 3 3 2 2 1 1 3 2 2 2 2 2 2 2 3 3 3 2 0 1 2 2
4 4 5 5 5 5 5 5 5 5 5 5 4 5 5 5 4 4 4 4 4 3 3 3 2 2 2 2 0 2 2 2 1 2 2 1 2 3 2 3 4 3 3
3 3 3 4 4 4 5 5 5 5 5 5 5 5 5 5 4 4 4 3 3 3 3 3 2 2 2 3 2 2 3 2 2 2 2 2 1 1 1 2 2 2 2
2 2 2 3 4 4 5 5 5 5 5 5 5 4 4 5 5 4 4 3 3 3 3 3 2 2 3 3 2 3 3 2 2 1 1 1 1 2 1 2 2 2 1
1 1 2 2 3 4 4 5 5 5 5 5 4 4 4 4 4 4 4 4 4 4 3 3 2 2 2 4 2 3 2 2 2 2 2 2 0 1 1 2 2 2 1
1 2 2 2 3 4 4 5 5 5 4 4 4 4 4 4 4 4 4 4 4 4 4 3 3 3 2 4 4 2 2 2 2 2 2 2 3 2 3 4 3 2 3
1 2 2 2 2 3 4 5 4 4 4 4 4 3 4 4 4 5 5 5 5 5 5 4 4 3 4 3 5 4 3 3 2 2 1 2 3 3 4 3 2 2 4
1 2 2 3 2 3 3 4 4 4 4 4 4 3 4 3 4 4 5 5 5 4 4 4 4 3 3 5 6 6 5 4 3 1 1 0 3 4 5 6 5 4 3
1 2 3 3 3 2 2 3 3 4 5 4 4 3 4 4 4 3 4 4 3 4 3 3 3 3 3 3 4 4 4 6 5 3 3 6 6 6 4 4 5 3 2
1 2 2 2 2 2 2 3 3 4 5 5 4 4 4 3 3 3 1 1 1 0 2 2 2 2 2 2 2 1 1 2 1 2 3 3 3 3 3 3 2 2 3
2 2 2 2 3 3 3 3 3 4 4 4 4 4 3 3 3 3 3 3 2 4 3 2 2 1 3 3 1 1 1 2 2 4 4 3 3 3 3 2 2 2 2
Wind_Direction
194 181 182 180 178 178 178 179 180 177 182 186 192 187 187 190 187 191 195 199 206 204 222 200 172 207 155 163 179 199 170 169 163 191 170 158 167 160 160 191 176 157 168
185 174 176 179 181 180 180 180 182 181 186 186 193 190 190 189 187 202 188 200 200 218 204 218 201 180 175 176 189 206 211 175 189 242 216 186 166 173 156 172 178 159 178
193 181 181 183 183 182 183 183 183 180 186 184 184 178 183 193 186 192 186 191 201 206 227 213 211 198 210 185 205 208 208 205 194 259 278 268 205 159 150 170 152 178 205
198 190 184 183 185 185 182 184 181 180 180 185 191 190 195 197 196 202 179 180 194 217 227 224 202 215 220 201 217 195 223 228 214 196 273 302 330 275 179 177 166 182 203
199 195 193 185 183 184 181 178 177 180 180 186 190 198 204 205 195 195 177 195 180 214 231 223 208 208 216 212 231 220 232 224 238 237 232 233 232 255 257 217 192 191 191
197 192 189 180 179 177 174 172 174 178 179 184 189 198 202 208 206 204 197 204 196 204 217 220 212 208 213 212 217 225 215 230 225 248 246 241 246 246 254 254 233 204 180
184 182 182 180 177 175 172 171 172 175 177 181 187 193 200 205 211 219 207 227 221 206 208 217 215 214 214 218 219 213 226 216 213 232 248 254 262 277 272 270 269 241 195
164 172 174 173 170 169 170 170 172 174 175 177 181 184 193 204 202 211 225 215 241 250 218 194 205 212 216 217 214 214 207 200 212 230 248 255 258 261 263 267 273 258 226
155 159 159 164 166 166 168 171 171 172 174 174 175 178 187 195 190 189 210 210 222 220 190 191 199 199 205 213 210 205 207 203 219 223 219 240 246 253 259 262 263 265 258
146 143 150 156 157 158 159 163 169 169 169 170 177 172 176 181 188 192 186 198 204 179 185 187 195 194 195 203 214 207 198 199 208 227 232 246 246 238 248 257 261 259 269
147 141 143 148 146 153 154 159 165 167 168 168 167 162 166 167 174 174 172 174 173 170 185 192 199 197 197 193 201 213 207 213 217 228 216 225 263 264 251 250 264 267 260
140 139 144 145 145 148 149 155 160 164 165 160 158 155 153 154 162 159 159 156 162 165 171 184 198 197 190 191 202 213 210 221 220 221 227 231 220 252 273 273 276 275 274
145 141 146 148 148 149 151 150 154 153 155 153 151 147 150 152 153 153 154 156 157 161 168 177 190 199 198 190 199 206 204 212 223 227 225 222 224 241 257 274 276 278 265
156 155 155 155 155 158 154 149 145 143 143 143 141 141 147 149 150 150 150 155 158 167 175 174 197 220 214 193 189 189 198 210 210 211 221 223 223 230 236 229 249 259 235
173 171 168 161 164 162 158 152 146 144 145 145 144 143 147 148 149 148 147 152 159 168 167 164 170 184 185 161 207 202 201 204 198 191 192 174 118 37 327 313 293 247 248
190 183 174 172 173 170 167 157 154 150 152 155 149 146 149 149 152 152 151 153 159 164 156 152 150 150 99 63 6 276 218 207 197 191 181 174 172 150 162 242 321 303 262
198 187 184 183 179 177 175 169 161 157 157 153 151 151 151 150 156 162 157 161 164 162 164 169 169 158 94 95 137 283 237 200 193 201 205 207 157 190 177 180 203 221 245
207 194 194 190 184 177 173 166 163 161 160 160 160 159 160 157 160 164 162 163 163 170 174 177 177 163 126 134 175 246 211 197 197 202 201 205 193 161 236 226 228 234 228
214 197 203 189 174 177 173 168 171 168 168 169 170 169 167 168 171 170 171 173 178 185 190 185 182 177 152 149 189 255 200 184 189 184 173 208 191 101 271 233 228 237 234
197 178 193 173 167 173 170 174 179 177 179 174 172 168 173 177 178 175 179 182 189 193 196 175 177 183 168 142 161 257 224 191 194 174 178 143 202 125 236 240 240 242 269
182 166 163 163 163 168 172 180 184 185 184 175 170 172 179 184 185 185 187 188 192 189 192 177 177 180 174 151 155 228 255 235 231 225 213 142 144 180 223 246 242 247 272
168 163 157 155 157 169 178 182 186 180 175 175 181 184 190 201 186 186 194 199 198 189 189 187 193 184 176 169 164 180 222 290 257 257 263 109 143 199 225 235 224 236 252
167 162 162 150 152 175 186 186 182 179 177 179 184 187 191 201 202 199 198 201 202 207 197 193 195 189 176 158 165 182 201 231 255 278 56 96 195 222 213 202 213 223 233
186 174 169 160 161 180 186 190 180 179 179 181 187 191 197 197 198 209 206 205 200 205 204 206 206 197 187 179 169 179 189 201 218 231 191 201 217 226 232 208 203 219 229
188 178 182 168 168 188 187 183 183 182 184 185 190 198 199 193 199 198 188 223 156 10 269 248 230 217 197 83 47 297 266 274 285 267 234 226 215 212 214 215 209 223 222
185 177 175 173 175 183 182 172 177 183 189 192 194 195 194 192 197 180 156 79 84 98 81 28 336 56 72 97 113 255 290 288 256 255 240 236 242 250 247 238 223 221 235